sat.trackr.live / text

‹ back to catalog

HAIYANG-2D

NORAD 48621 · 2021-043A

PAYLOAD ACTIVE UNKNOWN

§ Identity

Operator
Country
PRC
Launch date
2021-05-19
Launch site
JSC
Launch vehicle
Mass (kg)
RCS (m²)

External: N2YO · Heavens-Above · Gunter

§ Orbital elements

Epoch: 2026-09-20T22:31:25.593888Z

Period
104.09 min
Inclination
65.9979°
Eccentricity
0.0010662
Mean motion
13.83375107 rev/d
Perigee alt
944.1 km
Apogee alt
959.8 km
Semi-major
7,330.1 km
B*
5.2216e-5
RAAN
66.3106°
Arg perigee
259.1329°
Mean anomaly
100.8540°
Rev number
26,979

§ Raw data

HAIYANG-2D1 48621U 21043A   26263.93849067 -.00000024  00000+0  52216-4 0  99922 48621  65.9979  66.3106 0010662 259.1329 100.8540 13.83375107269795

JSON: /api/v1/satellites/48621 · /tle

For live sub-satellite position, see the globe view (requires WebGL).

§ Visibility from observer

Set your observer location to see the next 7 days of passes ≥ 10°. The values pass through the URL so the page stays shareable.

No JS? Fill the form by hand. The geolocation button needs JavaScript.

§ Radio — SatNOGS DB

ModeDescriptionDownlinkUplink
FM S-band telemetry 2.237 GHz

1 transmitter · refreshed weekly from db.satnogs.org